Location: Alt?nova Orta
(36.9295°N, 30.7847°E)
Time: 17:13:20
(UTC+00:00)

ATLAS CENTAUR R/B - Pass Details

Date: 17 February 2020
Orbit: 466 x 681 km, 64.7° (Epoch: 05 April)

Event Time Altitude Azimuth Distance (km) Brightness Sun altitude
Exits shadow 02:06:58 16° 23° (NNE) 1,658 4.0 -32.0°
Drops below altitude 10° 02:07:54 10° 25° (NNE) 2,011 4.5 -31.8°
Sets 02:10:08 0° 28° (NNE) 2,889 5.5 -31.3°
